When you browse on this site, cookies collect data to enhance your experience and personalize the content and advertising you see.
Visit our Privacy Policy to learn more. By continuing to use the site, you agree to this use of cookies and data.
EN

Hourly Weather Kasama

Today, 13 August, Thursday

Time Temperature Precipitation Wind Pressure Humidity
00:00 +24°C° 0 mm 1 mps 722 mmHg 92%
01:00 +24°C° 0 mm 1 mps 721 mmHg 92%
02:00 +24°C° 0 mm 1 mps 721 mmHg 92%
03:00 +24°C° 0 mm 1 mps 721 mmHg 91%
04:00 +24°C° 0 mm 1 mps 721 mmHg 91%
05:00 +24°C° 0 mm 2 mps 721 mmHg 90%
06:00 +24°C° 0 mm 1 mps 721 mmHg 91%
07:00 +24°C° 0 mm 1 mps 722 mmHg 92%
08:00 +25°C° 0 mm 1 mps 723 mmHg 92%
09:00 +26°C° 0.2 mm 2 mps 723 mmHg 87%
10:00 +28°C° 0.2 mm 2 mps 723 mmHg 82%
11:00 +29°C° 0.2 mm 2 mps 723 mmHg 78%
12:00 +29°C° 0.7 mm 2 mps 722 mmHg 77%
13:00 +30°C° 0.7 mm 2 mps 721 mmHg 76%
14:00 +30°C° 0 mm 2 mps 721 mmHg 76%
15:00 +30°C° 0.5 mm 2 mps 720 mmHg 79%
16:00 +29°C° 0.5 mm 2 mps 720 mmHg 82%
17:00 +29°C° 0.5 mm 2 mps 720 mmHg 85%
18:00 +28°C° 0.3 mm 1 mps 720 mmHg 88%
19:00 +27°C° 0.3 mm 1 mps 720 mmHg 91%
20:00 +25°C° 0.3 mm 1 mps 720 mmHg 94%
21:00 +25°C° 0 mm 1 mps 721 mmHg 94%
22:00 +25°C° 0 mm 1 mps 721 mmHg 94%
23:00 +25°C° 0 mm 1 mps 722 mmHg 95%

Tomorrow, 14 August, Friday

Time Temperature Precipitation Wind Pressure Humidity
00:00 +25°C° 0 mm 1 mps 721 mmHg 95%
01:00 +24°C° 0 mm 1 mps 721 mmHg 96%
02:00 +24°C° 0 mm 1 mps 721 mmHg 97%
03:00 +24°C° 0 mm 1 mps 721 mmHg 97%
04:00 +24°C° 0 mm 1 mps 721 mmHg 97%
05:00 +24°C° 0 mm 1 mps 721 mmHg 97%
06:00 +25°C° 0 mm 1 mps 722 mmHg 94%
07:00 +26°C° 0 mm 1 mps 722 mmHg 91%
08:00 +27°C° 0 mm 1 mps 722 mmHg 89%
09:00 +28°C° 0 mm 1 mps 722 mmHg 83%
10:00 +29°C° 0 mm 2 mps 722 mmHg 77%
11:00 +31°C° 0 mm 2 mps 722 mmHg 71%
12:00 +31°C° 0.1 mm 2 mps 721 mmHg 70%
13:00 +31°C° 0.1 mm 1 mps 720 mmHg 68%
14:00 +32°C° 0.1 mm 1 mps 719 mmHg 66%
15:00 +31°C° 0 mm 1 mps 719 mmHg 70%
16:00 +31°C° 0 mm 1 mps 719 mmHg 73%
17:00 +30°C° 0 mm 1 mps 718 mmHg 77%
18:00 +29°C° 0 mm 1 mps 719 mmHg 79%
19:00 +26°C° 0 mm 0 mps 719 mmHg 80%
20:00 +25°C° 0 mm 0 mps 719 mmHg 82%
21:00 +25°C° 0 mm 0 mps 719 mmHg 83%
22:00 +24°C° 0 mm 0 mps 719 mmHg 84%
23:00 +24°C° 0 mm 0 mps 720 mmHg 85%

Day after tomorrow, 15 August, Saturday

Time Temperature Precipitation Wind Pressure Humidity
00:00 +24°C° 0 mm 0 mps 719 mmHg 86%
01:00 +26°C° 0 mm 1 mps 719 mmHg 87%
02:00 +25°C° 0 mm 1 mps 719 mmHg 89%
03:00 +25°C° 0 mm 1 mps 719 mmHg 89%
04:00 +25°C° 0 mm 1 mps 719 mmHg 90%
05:00 +23°C° 0 mm 0 mps 719 mmHg 91%
06:00 +26°C° 0 mm 1 mps 720 mmHg 89%
07:00 +27°C° 0 mm 1 mps 720 mmHg 86%
08:00 +28°C° 0 mm 1 mps 721 mmHg 83%
09:00 +29°C° 0.3 mm 1 mps 720 mmHg 79%
10:00 +30°C° 0.3 mm 1 mps 720 mmHg 75%
11:00 +32°C° 0.3 mm 1 mps 720 mmHg 71%
12:00 +32°C° 1 mm 1 mps 719 mmHg 68%
13:00 +30°C° 1 mm 0 mps 719 mmHg 66%
14:00 +31°C° 1 mm 0 mps 718 mmHg 63%
15:00 +30°C° 0 mm 0 mps 718 mmHg 66%
16:00 +30°C° 0 mm 0 mps 718 mmHg 70%
17:00 +32°C° 0 mm 1 mps 717 mmHg 73%
18:00 +30°C° 0 mm 1 mps 718 mmHg 76%
19:00 +29°C° 0 mm 1 mps 718 mmHg 79%
20:00 +27°C° 0 mm 1 mps 718 mmHg 83%
21:00 +27°C° 0.1 mm 1 mps 718 mmHg 84%
22:00 +26°C° 0.1 mm 1 mps 718 mmHg 86%
23:00 +26°C° 0.1 mm 1 mps 719 mmHg 87%

16 August, Sunday

Time Temperature Precipitation Wind Pressure Humidity
00:00 +26°C° 0.5 mm 1 mps 718 mmHg 89%
01:00 +25°C° 0.5 mm 1 mps 718 mmHg 90%
02:00 +25°C° 0.5 mm 1 mps 718 mmHg 91%
03:00 +25°C° 1 mm 1 mps 718 mmHg 92%
04:00 +25°C° 1 mm 1 mps 718 mmHg 93%
05:00 +25°C° 1 mm 1 mps 718 mmHg 94%
06:00 +25°C° 0.4 mm 2 mps 719 mmHg 94%
07:00 +25°C° 0.4 mm 2 mps 719 mmHg 93%
08:00 +25°C° 0.4 mm 3 mps 720 mmHg 92%
09:00 +26°C° 0 mm 3 mps 720 mmHg 90%
10:00 +26°C° 0 mm 3 mps 720 mmHg 88%
11:00 +27°C° 0 mm 3 mps 720 mmHg 85%
12:00 +27°C° 0 mm 2 mps 720 mmHg 84%
13:00 +28°C° 0 mm 2 mps 719 mmHg 82%
14:00 +28°C° 0 mm 1 mps 718 mmHg 80%
15:00 +28°C° 0 mm 1 mps 718 mmHg 81%
16:00 +27°C° 0 mm 1 mps 718 mmHg 83%
17:00 +27°C° 0 mm 1 mps 717 mmHg 84%
18:00 +26°C° 0.3 mm 1 mps 718 mmHg 87%
19:00 +26°C° 0.3 mm 1 mps 719 mmHg 89%
20:00 +25°C° 0.3 mm 1 mps 719 mmHg 91%
21:00 +25°C° 0 mm 1 mps 720 mmHg 91%
22:00 +25°C° 0 mm 1 mps 720 mmHg 91%
23:00 +25°C° 0 mm 1 mps 720 mmHg 92%

17 August, Monday

Time Temperature Precipitation Wind Pressure Humidity
00:00 +25°C° 1.3 mm 1 mps 720 mmHg 93%
01:00 +24°C° 1.3 mm 2 mps 720 mmHg 95%
02:00 +24°C° 1.3 mm 2 mps 719 mmHg 97%
03:00 +24°C° 0.9 mm 2 mps 719 mmHg 96%
04:00 +24°C° 0.9 mm 2 mps 720 mmHg 96%
05:00 +24°C° 0.9 mm 2 mps 720 mmHg 96%
06:00 +24°C° 0.5 mm 2 mps 720 mmHg 96%
07:00 +24°C° 0.5 mm 2 mps 721 mmHg 96%
08:00 +24°C° 0.5 mm 2 mps 721 mmHg 96%
09:00 +24°C° 0.9 mm 2 mps 721 mmHg 96%
10:00 +24°C° 0.9 mm 2 mps 721 mmHg 96%
11:00 +24°C° 0.9 mm 2 mps 721 mmHg 96%
12:00 +24°C° 0.9 mm 2 mps 721 mmHg 95%
13:00 +24°C° 0.9 mm 2 mps 720 mmHg 95%
14:00 +25°C° 0.9 mm 2 mps 720 mmHg 95%
15:00 +25°C° 0.2 mm 1 mps 719 mmHg 95%
16:00 +24°C° 0.2 mm 1 mps 719 mmHg 95%
17:00 +24°C° 0.2 mm 1 mps 719 mmHg 95%
18:00 +22°C° 0 mm 0 mps 719 mmHg 95%
19:00 +22°C° 0 mm 0 mps 720 mmHg 95%
20:00 +22°C° 0 mm 0 mps 720 mmHg 94%
21:00 +22°C° 0 mm 0 mps 720 mmHg 95%
22:00 +21°C° 0 mm 0 mps 720 mmHg 95%
23:00 +21°C° 0 mm 0 mps 721 mmHg 96%

18 August, Tuesday

Time Temperature Precipitation Wind Pressure Humidity
00:00 +21°C° 0 mm 0 mps 720 mmHg 96%
01:00 +21°C° 0 mm 0 mps 720 mmHg 96%
02:00 +21°C° 0 mm 0 mps 720 mmHg 96%
03:00 +21°C° 0 mm 0 mps 720 mmHg 96%
04:00 +21°C° 0 mm 0 mps 720 mmHg 96%
05:00 +21°C° 0 mm 0 mps 720 mmHg 96%
06:00 +22°C° 0.2 mm 0 mps 721 mmHg 95%
07:00 +22°C° 0.2 mm 0 mps 721 mmHg 94%
08:00 +23°C° 0.2 mm 0 mps 722 mmHg 93%
09:00 +26°C° 0.3 mm 1 mps 722 mmHg 90%
10:00 +27°C° 0.3 mm 2 mps 722 mmHg 88%
11:00 +28°C° 0.3 mm 3 mps 721 mmHg 85%
12:00 +28°C° 0.6 mm 3 mps 721 mmHg 83%
13:00 +29°C° 0.6 mm 3 mps 720 mmHg 81%
14:00 +29°C° 0.6 mm 3 mps 720 mmHg 79%
15:00 +28°C° 0.5 mm 2 mps 719 mmHg 82%
16:00 +28°C° 0.5 mm 2 mps 719 mmHg 85%
17:00 +27°C° 0.5 mm 2 mps 719 mmHg 89%
18:00 +26°C° 0.1 mm 2 mps 719 mmHg 90%
19:00 +26°C° 0.1 mm 2 mps 719 mmHg 91%
20:00 +25°C° 0.1 mm 2 mps 720 mmHg 92%
21:00 +25°C° 0.4 mm 1 mps 720 mmHg 93%
22:00 +25°C° 0.4 mm 1 mps 720 mmHg 93%
23:00 +25°C° 0.4 mm 1 mps 720 mmHg 94%
Show more